Location: Koszewko
(53.2876°N, 14.9061°E)
Time: 01:58:32
(UTC+00:00)

COSMOS 2428 - Pass Details

Date: 03 March 2021
Orbit: 846 x 857 km, 70.9° (Epoch: 11 April)

Event Time Altitude Azimuth Distance (km) Brightness Sun altitude
Rises 17:37:30 0° 145° (SE) 3,397 5.5 -9.0°
Reaches altitude 10° 17:41:40 10° 115° (ESE) 2,470 4.6 -9.6°
Enters shadow 17:42:26 11° 107° (ESE) 2,390 4.4 -9.7°
